COSMOS 2251 DEB, 35989

Orbit data source: Space-Track

COSMOS 2251 DEB, 35989 is space debris in LEO originally from a launch on Wed, 16 Jun 1993 UTC launched from the Plesetsk Missile And Space Complex (PKMTR). The debris from Iridium 33, an American commercial communications satellite, has been tracked extensively since its accidental collision with the defunct Russian satellite Cosmos 2251 in 2009. This event, occurring at high speed in low Earth orbit (LEO), generated thousands of pieces of space debris, significantly increasing the risk of further collisions. The Iridium 33 debris cloud has impacted space traffic management and orbital debris mitigation strategies, making it a subject of ongoing study in space situational awareness.

Loading next visibility...
Identifier
35989, 1993-036AWF
Orbit
LEO
Country
Flag of CISCIS
Related business
Manufacturer
Unknown
Mission
Spacecraft
Bus & Motor
Unknown
Mass
Unknown
Launch date (UTC)
1993-06-16 (33 years ago)
Launch vehicle
Unknown
Launch site
Plesetsk Missile And Space Complex (PKMTR)
Object type
Payload
Rocket body
Debris
Shape & HBR
Unknown shape, 0.1 m
Radar Cross Section
Small (<0.1 m²)

Expand to show TLE details & history
Last TLE update: 13 hours ago

TLE from 13 hours ago
0 COSMOS 2251 DEB
1 35989U 93036AWF 26122.00611909  .00000405  00000-0  14431-3 0  9999
2 35989  74.0397  25.8575 0021246  77.1057 283.2468 14.37269325891946
Epoch: 2026-05-02T00:08Z
TLE epoch observation values (Epoch: 2026-05-02T00:08:48.689Z)
Latitude
-0.00002°
Longitude
163.7244°
Altitude
766.699 km
Speed
7.473 km/s
True Right ascension
01h 43m 25s
True Declination
0° 00' 00"
Sunlit
Object was in daylight at epoch
Visualization orbit readout
Latitude
Unknown
Longitude
Unknown
Altitude
Unknown
Speed
Unknown
Apparent Right ascension
Unknown
Apparent Declination
Unknown
Sunlit
N/A
Visualization observer readout
Local Sidereal Time
20:47:38
Azimuth
Unknown
Elevation
Unknown
Doppler factor
Unknown
Orbital elements
Apogee altitude
780.334 km
Perigee altitude
749.981 km
Semi-major axis
7,143.294 km
Eccentricity
0.00212
Inclination
74.0397°
RAAN
25.8575°
Arg. of periapsis
77.1057°
True anomaly
283.00967°
Mean anomaly
283.2468°
Eccentric anomaly
283.12825°
Mean motion
3.59497 °/min
Orbital period
100.14 mins
BSTAR
0.00014431
Loading maneuver chart data...
Computing Atmospheric mass density...
Loading historical data...
Loading historical data...
Loading historical data...
Loading historical data...
Loading historical data...
Loading historical data...
Loading historical data...

Documentation

Showing up to 5 results
|